Theta_e
326 323 325 330 336 330 328 330 312 319 316 307 305 306 302 311 315 314 313 317 313 319 324 324 322 320 324 326 327 328 329 326 328 310 317 331 346 347 347 347 346 345 346 348 350 350 351 353 354 354 353 354 354 354 354 353 354 354 354 354 354 354 354 354 353 353 352 351 351 352 352 351 348 346 345 344 343 343 344 343 343 343 344 345 345 345 345 346 347 347 347 348 348 348 349 348 347
323 322 323 321 327 322 310 325 313 306 309 302 303 306 306 311 314 311 311 314 316 320 323 324 323 326 333 333 333 332 328 331 332 329 336 343 345 345 346 346 346 344 346 348 348 348 349 352 354 353 354 354 354 354 353 353 354 354 354 353 354 354 354 353 353 352 351 351 352 352 352 351 348 346 345 343 342 342 346 344 343 343 344 345 344 345 345 347 347 347 347 348 348 349 348 347 347
322 324 320 322 319 315 312 319 304 301 297 293 298 301 308 309 311 312 314 317 320 323 326 326 325 321 328 330 326 327 321 335 334 335 337 344 339 341 345 346 346 346 346 347 347 347 348 351 354 353 354 354 354 353 353 354 354 354 354 354 354 354 353 353 353 352 352 352 353 352 352 351 350 348 346 344 343 343 342 346 343 343 343 343 344 345 346 346 346 347 347 348 348 347 347 347 348
322 323 319 323 310 314 305 304 305 299 295 294 296 302 305 309 312 315 317 319 320 323 323 320 319 324 326 322 325 332 331 331 336 334 332 337 340 344 345 346 347 345 345 346 347 347 348 352 353 353 354 354 353 353 353 354 354 354 354 354 354 353 354 353 353 352 352 352 352 352 352 351 350 348 347 345 343 343 343 345 344 344 345 346 346 346 346 346 346 347 347 348 347 347 347 347 346
319 321 322 319 311 310 308 303 297 298 293 295 295 303 307 308 313 316 314 314 320 321 320 319 326 331 331 328 329 323 326 336 336 338 334 341 346 345 345 346 345 344 343 345 346 347 349 353 353 353 353 354 354 353 353 353 354 354 354 354 354 353 353 353 353 352 352 352 352 352 352 350 349 348 348 348 345 343 342 346 349 346 346 348 350 351 349 348 346 347 347 347 346 346 344 346 346
320 317 321 318 308 310 305 298 296 296 299 302 300 303 308 309 309 310 309 310 316 314 321 319 324 325 324 326 330 326 334 327 336 337 337 340 344 346 345 346 344 343 344 344 345 347 349 353 353 352 353 353 354 353 353 353 353 353 354 353 353 353 353 353 353 353 352 352 352 352 351 348 347 347 347 348 348 347 345 345 348 346 346 346 347 347 347 346 346 346 346 346 345 345 344 345 346
314 311 309 313 313 310 300 297 296 297 301 305 303 305 307 309 308 309 309 311 313 313 321 326 328 327 323 327 331 336 338 341 337 336 339 343 345 345 345 345 344 343 344 344 345 346 349 352 352 352 352 353 353 353 353 353 354 353 353 353 353 353 353 353 352 352 352 352 352 351 350 349 349 347 347 347 347 347 347 346 346 346 346 347 347 347 347 346 346 347 346 344 345 344 344 346 346
318 308 307 303 299 302 297 296 297 299 299 306 307 308 309 309 308 307 308 307 308 308 326 332 333 327 325 333 323 336 340 342 340 340 342 343 344 344 345 345 343 343 343 343 344 347 352 352 351 352 352 353 353 353 353 354 353 353 353 353 353 353 352 353 352 352 352 351 352 351 351 350 349 348 347 347 347 346 346 347 347 347 348 348 348 347 347 347 347 347 345 345 342 346 345 345 347
314 308 313 303 297 303 296 295 298 303 303 305 307 311 322 309 309 308 308 309 309 314 321 329 329 324 328 329 327 335 338 341 341 344 341 342 341 344 346 345 343 342 342 343 345 347 348 351 351 352 352 352 353 353 353 353 353 353 353 353 353 352 352 352 351 351 351 351 350 350 350 349 348 347 346 346 345 345 345 346 347 348 348 348 347 348 347 347 347 345 345 343 345 344 346 346 346
308 307 302 302 301 295 296 297 297 300 302 306 306 309 310 310 308 310 308 307 311 323 326 332 332 327 330 326 329 335 334 340 340 339 340 340 341 347 347 345 344 343 342 343 345 346 347 352 351 351 351 352 353 353 353 353 353 353 353 352 352 352 351 351 351 351 350 349 349 349 348 347 347 346 345 344 344 345 344 346 347 347 347 348 347 347 346 346 346 345 344 345 346 346 347 347 346
304 308 308 305 300 295 294 294 299 302 303 305 307 311 311 311 310 309 309 309 311 326 331 335 331 330 331 329 329 338 340 340 338 336 339 341 346 346 346 346 345 344 342 343 344 345 347 348 353 352 352 353 353 353 353 353 353 353 353 352 352 352 351 350 349 349 349 348 348 347 346 346 345 344 344 343 343 343 343 344 346 347 347 347 347 346 347 347 345 345 346 346 347 347 346 346 348
302 303 304 296 295 295 295 295 300 302 305 306 305 309 311 311 311 309 309 308 310 316 327 333 329 334 328 328 327 335 339 338 337 338 340 341 345 347 346 345 344 343 342 342 345 345 346 348 348 353 353 353 353 353 353 353 352 352 352 352 351 351 350 349 349 348 348 347 347 346 346 345 344 344 343 342 341 342 342 343 344 345 345 345 345 347 346 346 346 346 347 346 347 346 345 346 347
302 304 299 297 295 296 298 297 299 302 302 304 305 309 311 311 310 311 310 309 309 309 324 334 337 335 327 327 332 337 336 336 339 340 340 339 341 346 346 345 344 343 343 344 343 344 346 347 348 350 352 353 353 352 352 352 352 352 351 351 350 349 349 348 347 347 347 347 346 345 345 344 343 342 341 341 341 341 342 342 343 344 343 344 345 345 346 345 346 347 347 346 345 346 346 345 346
304 303 302 297 301 299 297 296 300 298 300 305 308 310 311 310 311 312 309 308 309 314 329 339 338 335 328 330 330 330 332 338 339 339 338 339 341 342 343 343 343 342 342 341 342 344 344 345 348 350 351 351 350 352 352 351 351 351 350 350 349 348 347 347 346 345 344 344 344 344 343 343 342 341 340 341 341 341 341 341 341 340 342 343 344 345 345 345 345 345 345 345 345 345 345 346 346
303 306 305 300 297 298 300 297 297 299 299 305 308 309 310 312 312 313 310 307 309 320 336 342 337 331 323 328 326 329 333 336 338 338 338 339 340 340 342 343 342 341 340 340 342 342 342 344 347 350 350 349 350 349 348 350 351 350 349 348 347 347 346 345 344 343 342 341 341 342 342 342 341 341 340 341 341 341 341 341 341 341 342 343 344 344 344 345 345 344 345 344 345 344 344 345 345
308 305 303 298 296 297 299 299 301 299 299 305 308 310 309 311 313 311 313 312 312 318 320 316 327 323 333 332 332 334 335 337 338 338 338 338 338 339 340 340 340 339 338 338 339 340 342 344 347 349 349 349 348 348 348 348 350 349 349 348 347 346 345 344 343 342 342 341 341 341 341 341 341 339 341 339 341 341 341 342 342 342 342 343 344 344 345 344 344 343 343 343 344 344 345 345 346
307 306 298 296 294 297 299 299 300 297 303 305 308 308 306 307 312 313 316 316 311 316 319 321 319 334 335 336 337 337 337 339 339 338 337 336 336 337 338 338 337 337 337 336 338 340 342 344 346 347 348 348 348 348 347 347 348 349 347 348 347 346 345 344 343 343 343 343 342 341 341 338 335 335 337 337 341 340 341 341 342 343 343 343 344 344 345 345 344 343 343 345 345 346 346 347 347
307 299 298 295 297 296 300 301 302 303 303 306 307 309 308 306 310 312 314 313 314 317 325 334 338 337 340 340 340 338 338 337 338 336 334 333 334 335 335 336 336 334 335 335 338 339 340 344 346 346 347 347 347 348 348 347 348 347 344 344 344 344 344 344 342 340 345 339 342 341 338 341 336 335 336 341 338 340 340 342 343 343 342 342 343 343 344 344 344 344 345 346 346 348 346 343 343
300 297 297 295 299 301 304 304 305 304 304 306 308 309 309 308 310 312 308 309 310 311 333 335 334 336 338 338 338 337 337 336 337 335 334 333 332 334 334 335 335 335 334 336 337 338 340 344 345 346 347 347 347 347 347 347 345 344 344 344 344 345 345 344 340 343 340 340 341 340 342 341 337 336 338 342 341 343 341 342 343 342 342 342 343 343 344 345 345 346 346 347 348 348 344 341 340
302 299 296 298 302 303 305 306 305 307 307 306 307 309 308 310 311 315 309 308 309 307 326 331 331 331 333 335 336 336 336 336 337 335 334 334 334 335 334 335 335 335 336 336 336 339 339 341 344 346 347 347 347 346 346 345 343 343 342 342 341 340 340 342 339 339 341 340 342 341 341 343 340 337 346 346 344 342 340 343 344 342 342 343 343 344 345 345 345 347 347 348 346 346 340 339 339
301 299 297 301 304 302 304 307 307 308 308 307 307 309 308 310 311 311 310 307 308 309 328 330 330 332 333 334 335 336 336 336 335 336 335 335 336 336 336 336 335 336 337 337 337 338 337 338 344 345 347 347 346 346 345 343 343 342 342 341 340 338 338 338 338 338 337 339 341 342 343 344 342 341 341 339 336 337 336 337 337 336 338 337 344 338 337 339 340 340 339 341 339 340 339 336 334
303 300 302 303 305 303 306 307 308 307 309 308 308 306 307 312 312 311 310 306 305 308 317 333 335 335 334 333 335 337 336 335 335 335 334 334 335 336 336 336 338 337 338 336 335 337 336 339 344 345 347 347 346 345 345 344 344 342 341 340 339 337 338 337 338 339 337 336 341 343 345 343 342 340 338 335 336 335 334 336 337 337 336 338 342 340 338 341 342 338 339 341 338 336 338 339 341
297 301 302 303 305 304 307 307 307 307 307 307 307 308 310 309 308 310 310 309 309 313 315 333 338 337 337 337 336 336 336 336 335 334 335 334 335 337 336 336 336 335 337 336 336 336 337 340 344 346 346 346 346 346 345 344 343 343 342 340 338 336 337 336 337 338 339 342 342 345 342 343 342 340 340 341 342 343 341 340 342 341 339 339 342 342 342 343 342 343 341 340 339 338 338 339 340
301 298 302 303 305 304 307 307 308 307 306 306 309 311 308 308 306 311 308 311 312 320 329 335 338 338 338 336 337 337 337 337 337 337 336 335 336 338 336 336 336 336 335 335 335 336 340 341 345 346 346 346 345 345 344 343 343 343 342 343 340 337 337 337 336 338 341 343 344 345 348 344 342 339 339 339 340 340 338 339 341 340 339 339 341 341 342 342 343 342 340 341 340 338 338 339 339
299 299 302 303 305 305 307 307 307 307 307 308 308 307 307 309 308 309 308 310 311 318 330 337 337 337 337 336 336 337 336 338 336 338 338 337 338 340 338 337 336 335 334 334 334 334 339 343 345 345 346 345 345 345 343 343 343 342 342 342 339 342 337 337 337 341 340 343 344 346 344 340 341 340 338 338 339 337 337 338 338 338 337 338 339 340 341 338 339 343 343 342 339 339 338 338 339
301 301 303 303 304 305 306 306 307 307 308 308 306 305 308 309 310 308 309 308 310 312 327 334 335 334 335 336 336 337 336 338 337 337 336 338 340 339 336 335 336 334 334 334 333 334 338 343 344 345 345 344 345 346 343 342 342 341 341 340 339 345 337 337 340 339 341 341 343 344 343 340 339 338 338 339 338 336 338 337 337 336 338 338 337 337 339 339 340 341 343 342 341 339 337 336 340
303 302 303 303 303 304 305 304 306 307 307 308 305 304 306 309 308 303 311 312 311 313 318 331 331 332 335 336 337 337 337 337 337 339 337 338 340 338 335 335 335 334 334 333 333 334 336 340 342 344 344 345 345 345 343 342 341 340 340 340 341 337 338 338 339 339 341 342 344 343 343 342 339 339 338 338 338 336 337 335 333 336 336 336 338 338 339 340 339 338 338 337 337 335 334 336 338
302 303 303 302 303 304 305 304 305 306 305 308 306 304 306 308 307 305 308 312 314 312 312 327 327 331 336 337 337 337 338 339 339 339 336 336 338 337 334 334 335 334 333 332 333 335 334 337 340 342 342 343 344 343 343 341 341 341 341 341 335 338 341 337 338 337 342 342 344 343 342 342 342 340 338 338 337 336 336 334 334 335 335 337 337 337 339 339 339 340 339 338 338 336 336 336 338
300 301 297 300 302 301 303 303 304 305 304 307 307 304 302 304 303 307 309 311 312 311 311 314 322 335 337 338 338 337 338 338 339 338 338 338 338 338 334 335 335 333 333 334 334 335 334 333 338 340 342 343 342 341 341 341 340 342 341 340 336 341 339 338 337 340 341 342 344 345 343 342 341 340 338 338 341 337 337 336 335 335 335 334 337 338 337 339 338 337 335 335 335 332 333 335 334
301 299 297 297 298 297 302 304 304 303 304 306 306 294 298 302 305 308 311 311 311 309 310 313 330 335 338 337 336 337 338 338 337 338 338 337 337 337 335 335 337 333 333 333 335 334 335 337 341 342 342 342 341 342 341 340 340 341 340 339 339 338 337 336 340 340 342 342 343 344 345 345 343 341 338 339 338 337 336 336 337 337 335 336 337 337 337 336 336 336 335 334 335 335 334 333 330
295 297 298 292 292 293 301 302 303 301 305 305 305 294 297 302 305 308 310 313 311 308 308 308 328 333 336 336 336 337 338 339 337 339 338 338 338 338 337 336 337 335 334 334 334 334 335 338 341 341 342 341 343 343 341 340 340 340 339 338 339 338 338 337 340 340 341 341 342 343 344 345 344 342 340 338 337 337 334 334 335 334 335 336 335 335 335 335 332 332 332 333 333 335 333 332 326
297 292 289 293 291 293 299 303 303 299 303 306 303 294 296 301 305 309 311 314 312 309 308 308 323 331 334 335 337 336 337 338 338 339 339 339 339 338 337 336 338 335 334 334 335 335 334 337 341 340 341 340 341 342 341 341 341 339 338 343 338 339 338 340 339 339 340 342 342 341 343 345 342 342 340 339 338 336 335 335 335 335 335 335 335 334 336 333 332 332 332 332 330 332 332 327 325
295 292 289 290 292 292 295 301 302 303 302 303 301 294 298 298 304 308 310 313 313 309 308 307 319 329 333 335 336 336 337 337 338 339 339 339 339 338 338 337 337 336 334 335 334 334 333 338 341 340 339 339 341 341 341 340 341 339 338 340 339 339 338 338 338 339 341 342 342 342 343 345 342 341 340 339 338 337 336 337 337 336 336 335 335 333 334 335 333 334 331 331 327 327 330 328 324
290 293 289 292 291 293 291 298 302 302 302 298 301 298 298 300 302 305 309 310 312 308 308 308 314 324 331 334 335 336 336 336 336 337 338 338 338 339 339 339 337 337 336 336 335 334 334 338 339 340 340 340 341 341 341 340 341 340 339 339 340 339 338 339 339 341 341 341 341 341 343 343 341 340 338 338 338 338 338 336 337 339 338 336 334 335 333 333 332 331 329 329 327 327 327 325 321
288 289 289 290 293 294 293 293 298 301 301 299 299 298 299 301 302 304 307 313 311 308 308 308 313 314 324 330 333 335 335 335 336 337 338 338 338 339 339 338 338 338 337 335 335 334 336 337 338 340 340 340 340 341 341 340 340 338 339 338 337 337 338 340 340 341 341 341 340 342 341 341 340 338 337 338 337 337 336 336 337 336 338 337 332 330 331 332 332 330 328 327 330 327 325 326 321
292 292 290 291 290 291 292 296 300 300 298 297 297 295 297 300 301 303 304 313 309 309 308 309 310 313 315 321 329 334 335 335 337 339 339 338 338 338 338 338 338 338 337 335 335 334 335 337 338 339 340 340 340 340 340 339 339 336 335 336 336 336 338 338 340 340 340 340 341 341 340 339 339 337 336 336 336 335 334 335 336 337 333 330 329 328 327 328 327 325 325 326 327 327 324 321 320
295 294 292 291 292 293 296 297 300 301 298 297 297 298 298 299 301 302 303 304 307 307 307 308 309 309 310 312 329 334 334 334 337 338 338 338 337 338 338 338 337 337 337 335 334 333 336 337 338 337 339 340 339 339 338 337 335 334 334 334 334 334 337 338 339 339 340 339 340 339 340 339 338 337 337 336 334 337 332 333 332 331 331 329 329 327 326 326 327 327 327 326 325 324 322 321 320
293 292 292 291 292 290 295 297 300 301 297 295 298 298 297 299 300 302 303 304 303 304 304 305 307 309 310 312 328 333 334 336 337 336 336 337 337 337 338 337 336 335 336 335 333 333 336 337 338 338 338 339 339 339 338 337 336 335 334 334 334 335 336 336 336 338 339 340 339 339 339 339 337 336 336 334 333 333 333 332 328 327 330 330 330 329 328 332 328 326 326 322 326 324 321 321 321
291 290 290 289 290 294 296 297 299 301 298 294 297 296 297 298 300 301 302 303 304 304 304 304 306 306 309 311 329 332 333 333 334 335 335 336 336 336 337 336 336 336 336 335 334 334 336 336 337 338 338 338 339 339 338 336 336 336 335 335 335 334 336 338 338 339 340 338 338 338 338 338 336 335 336 335 334 331 329 327 327 327 327 328 325 326 325 324 323 325 325 320 319 319 323 325 323
289 289 288 286 291 290 288 295 297 299 298 295 296 295 296 299 300 301 302 303 304 305 305 306 308 307 310 311 325 330 332 332 331 332 333 335 335 336 336 336 335 336 336 334 334 333 336 336 337 338 338 338 339 339 339 338 338 337 337 336 336 335 335 337 336 335 334 334 333 335 335 334 332 332 333 333 333 332 330 328 328 326 328 326 324 322 324 324 322 323 326 323 318 316 317 318 322
289 289 288 289 290 292 292 291 296 298 299 299 297 295 293 295 297 298 301 304 304 304 305 306 307 310 313 316 328 332 331 331 331 331 332 334 334 334 335 336 336 335 335 334 335 334 337 336 337 338 338 337 339 339 339 338 339 336 337 336 335 334 334 333 332 331 332 332 330 329 330 331 331 330 330 329 329 326 326 326 325 324 323 323 325 323 321 322 324 324 324 319 316 316 315 315 313
287 290 290 290 292 292 293 294 293 292 291 296 295 288 289 294 296 298 300 301 301 303 303 303 305 309 313 320 325 330 332 332 332 331 332 334 334 334 335 335 335 335 335 335 336 335 337 336 337 338 338 338 338 338 338 338 336 335 333 331 329 329 328 329 328 329 329 329 328 329 330 330 331 330 330 329 329 327 324 324 325 323 323 323 325 322 321 320 320 319 320 320 317 316 312 309 309
285 287 292 292 292 292 292 292 292 286 286 293 297 288 283 292 294 296 299 299 300 302 302 303 304 309 311 319 324 328 330 331 332 333 333 334 334 333 334 335 335 335 335 337 336 336 337 337 338 338 338 338 338 338 338 338 335 334 332 331 330 329 328 328 330 330 330 329 329 328 328 328 328 328 327 326 327 327 325 324 324 323 323 321 324 322 320 317 317 319 319 317 316 317 312 308 309
285 293 293 293 291 290 291 291 291 289 294 295 296 293 287 284 291 298 299 298 299 300 301 302 303 307 310 312 323 326 330 331 331 332 333 334 334 334 333 335 335 336 336 336 336 337 337 338 338 338 338 338 338 337 337 337 335 334 332 331 331 330 329 329 330 329 329 329 328 327 326 326 327 328 326 325 325 325 323 323 322 321 320 320 322 318 317 317 317 318 318 316 315 315 312 308 307
289 293 294 292 292 292 292 291 290 290 290 287 290 295 288 287 291 296 299 296 296 298 300 301 303 306 309 311 316 325 328 331 332 332 333 333 334 334 335 335 336 336 337 336 336 337 338 339 339 338 338 337 337 337 337 335 335 334 333 332 330 331 331 330 330 330 329 328 325 324 325 326 326 326 326 324 324 324 325 321 320 319 319 319 319 316 314 315 314 314 313 313 311 312 314 312 309
293 295 295 294 294 293 292 290 290 290 287 283 289 292 286 286 291 293 295 296 296 297 300 301 302 306 308 310 311 324 328 331 332 333 334 334 335 335 336 336 336 336 337 338 337 338 338 339 339 338 337 337 336 336 336 334 335 335 333 332 331 330 331 330 329 328 327 326 324 323 323 323 323 322 323 323 322 321 319 320 315 314 316 317 316 313 313 313 313 313 312 312 311 310 310 309 308
296 295 292 292 292 292 292 291 290 287 282 285 291 292 290 283 289 292 292 294 298 298 299 302 303 306 309 310 311 322 326 330 331 332 333 334 335 336 336 335 336 336 337 337 337 337 338 338 339 338 337 337 337 335 335 334 335 335 333 332 331 330 330 328 327 326 327 326 323 322 323 323 323 322 321 321 321 320 319 317 314 314 316 319 315 313 312 312 311 311 312 311 311 309 308 309 309
294 291 289 288 287 289 287 288 290 281 279 287 291 291 292 283 284 293 297 299 299 299 298 300 301 306 307 310 312 321 325 328 330 331 332 333 333 334 335 334 335 335 336 336 336 337 337 338 338 337 337 337 336 335 335 335 335 335 334 333 332 331 329 328 326 325 326 325 323 322 324 322 321 320 321 320 318 317 317 316 317 314 312 310 310 310 310 311 311 311 311 311 311 310 310 309 307
292 290 288 283 279 281 279 283 280 280 280 287 292 292 289 288 289 292 296 298 300 300 300 301 302 304 306 309 312 321 325 328 330 330 330 332 332 332 333 333 334 334 334 335 335 335 336 337 337 336 336 336 336 335 335 335 335 335 334 333 332 331 329 327 326 325 325 324 323 323 322 320 319 318 318 319 318 316 316 315 313 311 311 312 311 310 310 310 310 309 309 309 309 308 307 307 306
290 287 285 281 277 277 276 280 281 283 287 291 291 293 287 289 292 297 297 299 301 301 301 301 302 303 305 308 311 318 326 328 329 329 330 331 332 332 333 333 333 334 334 335 335 334 335 336 337 336 336 336 336 335 335 334 335 335 334 333 332 331 328 327 326 325 325 324 324 323 321 320 319 319 318 317 318 317 317 316 314 311 311 310 310 309 309 309 308 308 308 308 308 308 307 306 305
290 292 288 284 282 280 277 280 277 279 282 287 292 287 282 285 287 298 299 299 300 300 301 301 301 303 304 309 311 313 325 328 330 329 330 331 332 332 332 333 333 333 334 334 334 334 333 334 336 335 335 336 336 335 335 334 334 335 335 334 332 330 328 327 326 326 326 325 324 323 322 321 320 319 318 318 319 316 315 313 312 311 310 309 309 309 310 308 309 309 309 309 308 307 306 306 305
292 292 292 286 283 288 281 284 284 283 282 283 286 285 289 289 297 299 299 299 300 301 301 303 303 302 304 308 311 312 323 326 329 329 330 331 332 332 332 333 333 333 333 334 334 334 332 333 336 336 335 336 336 335 334 335 334 334 335 333 331 330 328 327 326 326 326 326 324 323 323 322 321 320 320 319 318 315 313 313 311 309 309 309 309 308 308 307 306 306 305 306 306 309 306 305 304
288 290 285 287 293 290 284 286 291 288 283 280 285 288 291 294 296 297 299 297 299 300 301 302 302 302 302 306 311 314 322 325 328 328 330 330 331 332 332 332 333 333 333 333 334 334 332 332 334 335 335 336 336 335 334 335 335 334 334 333 331 329 328 327 326 326 326 325 324 323 323 322 321 320 320 319 316 313 312 311 310 309 308 308 308 308 307 307 306 307 306 305 305 306 305 304 303
289 283 287 293 296 294 288 281 283 281 279 281 288 284 285 288 282 294 297 297 297 298 300 301 302 302 302 303 309 320 324 326 328 329 330 331 331 331 332 333 333 333 334 334 334 334 333 332 334 335 335 334 336 335 335 334 334 334 333 332 331 329 328 327 327 326 325 324 324 323 323 321 320 321 319 318 315 313 313 314 309 309 308 307 307 307 307 307 306 305 305 305 305 305 305 305 305
290 289 296 287 281 282 290 284 278 277 278 280 283 287 285 287 287 293 293 295 296 297 299 300 300 301 303 303 306 323 326 327 327 328 329 330 330 331 331 332 333 334 334 335 335 334 333 332 334 336 335 335 335 336 335 335 335 334 334 332 331 330 329 328 327 326 325 324 323 323 322 321 320 318 317 315 313 312 310 310 309 308 307 307 307 307 307 306 305 304 305 304 304 303 302 301 302
295 295 292 295 289 287 283 283 290 287 279 279 279 284 282 292 289 292 293 295 297 297 298 300 300 302 304 304 307 323 325 326 327 328 329 330 330 331 331 332 332 333 334 334 334 334 332 332 333 335 335 335 334 335 334 334 334 334 333 332 331 330 329 328 327 325 325 324 323 322 321 319 318 317 316 314 313 311 310 309 308 308 307 306 306 306 306 305 304 304 305 303 303 303 303 302 302
287 288 287 289 291 294 292 291 287 283 280 280 279 278 284 289 295 294 296 297 297 298 299 300 302 303 305 306 317 322 324 325 327 328 328 329 330 331 331 332 333 334 334 334 334 333 333 333 333 333 334 334 334 334 334 334 334 334 332 331 331 330 328 328 326 326 324 324 322 321 320 320 319 316 315 314 313 311 310 310 308 308 306 306 306 305 306 305 304 304 304 303 303 303 302 301 303
292 288 286 287 286 284 282 281 292 289 284 279 280 278 285 294 299 298 297 298 299 300 300 300 305 308 308 312 319 322 324 325 327 328 328 329 329 330 331 332 333 332 332 332 333 334 334 333 333 334 334 334 334 334 334 334 334 334 332 331 330 330 328 327 326 325 324 323 320 320 319 318 317 316 315 314 312 311 310 309 308 306 306 306 306 305 305 305 304 303 303 305 303 302 301 301 302
Wind_Speed
3 0 0 2 1 1 1 3 1 1 0 5 2 5 4 3 7 8 3 6 5 3 4 8 7 4 6 7 13 11 9 7 2 4 3 3 8 16 19 19 17 16 16 11 9 10 11 14 16 16 16 13 14 15 14 14 14 14 14 14 14 14 13 12 13 13 12 12 12 13 12 13 12 12 12 11 10 9 11 14 11 10 12 11 12 12 11 11 11 11 10 10 10 10 10 9 9
2 3 2 4 5 4 3 6 1 2 2 3 7 3 4 6 8 6 6 10 8 6 6 10 13 4 15 14 9 14 13 9 7 9 10 11 15 13 17 18 17 18 14 11 9 8 10 12 16 15 14 14 14 14 15 14 13 13 14 14 14 14 13 13 12 12 12 12 12 13 13 11 11 12 11 11 10 7 3 13 13 12 11 12 11 12 11 11 11 10 10 9 9 9 9 9 9
4 3 4 5 2 4 2 2 2 1 3 5 7 4 6 9 10 4 7 9 15 14 16 9 13 6 8 13 15 10 2 5 8 12 10 14 15 9 15 17 16 16 15 11 9 8 8 11 16 15 15 14 13 15 14 13 13 14 14 14 13 14 13 13 12 12 13 12 12 13 12 11 11 12 12 11 11 8 6 7 13 13 12 12 12 12 12 10 10 9 8 8 8 8 9 9 10
5 3 1 1 1 3 2 1 1 2 5 6 8 5 3 10 11 11 11 11 16 15 14 17 6 0 11 12 10 11 7 5 5 9 9 8 11 13 15 17 16 13 12 10 9 8 7 12 15 14 13 13 13 14 14 14 14 13 13 13 14 13 13 12 13 13 12 12 12 12 12 12 12 11 11 11 10 8 6 4 12 12 12 13 12 12 10 9 9 8 7 7 7 8 8 9 9
8 1 5 1 0 0 1 2 3 1 5 2 6 6 7 9 18 11 14 15 12 13 12 11 7 7 11 10 5 4 4 8 7 5 7 12 17 16 16 17 15 14 12 11 10 9 9 16 14 14 13 12 12 14 14 14 14 13 13 13 13 13 13 13 12 12 12 12 13 12 12 12 11 11 10 10 9 8 6 6 9 11 12 11 11 10 8 8 8 7 6 6 6 7 7 7 7
7 6 3 4 1 2 0 3 5 6 7 5 11 4 7 0 4 12 2 9 15 10 14 9 8 4 6 6 2 3 5 4 7 5 12 13 18 19 18 16 14 13 12 10 10 7 9 15 14 14 13 12 12 14 14 13 13 13 13 13 13 13 13 13 13 12 12 12 13 13 13 12 11 10 10 10 10 9 8 7 7 10 11 9 10 10 9 8 7 5 5 5 6 6 6 6 6
4 7 3 1 1 1 2 2 8 5 6 6 4 7 4 10 3 3 5 6 3 5 12 12 18 14 10 3 5 6 5 8 6 8 10 18 19 18 17 15 15 14 13 10 9 8 10 14 14 14 13 13 13 13 14 13 13 13 13 13 13 13 13 12 12 12 13 13 13 13 13 12 11 10 10 9 9 9 9 8 8 9 10 9 9 8 8 7 6 5 5 5 6 6 6 7 7
2 1 2 2 3 2 2 4 9 4 4 10 5 10 4 5 7 3 9 2 2 1 16 11 12 15 6 7 5 7 7 5 11 13 18 16 17 17 16 14 15 15 12 10 8 7 14 14 14 13 13 12 13 13 13 13 13 12 13 13 13 12 12 12 12 12 12 13 13 13 13 12 12 11 9 9 9 9 9 9 8 8 8 8 8 7 6 5 5 5 4 4 5 6 7 7 8
1 2 1 2 4 1 3 6 9 6 8 6 6 11 8 6 7 8 4 3 4 13 10 12 15 12 1 11 7 2 8 11 13 15 14 15 15 16 13 17 16 13 14 11 9 8 8 13 13 13 14 13 13 14 14 13 13 13 13 13 13 13 12 12 12 13 13 13 13 13 13 12 11 11 9 9 9 9 9 10 8 8 7 8 7 7 5 5 4 3 3 3 4 5 6 7 8
2 4 2 1 1 6 3 6 8 7 7 10 8 8 5 4 5 1 6 3 13 16 12 14 14 16 12 12 7 4 6 12 12 13 13 12 13 17 16 17 17 17 13 11 9 8 7 14 13 13 13 13 13 14 13 13 13 13 13 13 12 12 13 13 12 12 12 11 11 9 10 10 10 9 9 9 8 8 9 10 8 8 8 7 7 7 5 4 2 2 1 2 4 4 6 7 7
1 2 1 1 2 2 3 5 8 9 11 6 10 11 8 6 4 2 7 1 9 14 18 20 14 13 11 4 4 4 9 10 13 12 9 13 20 18 15 15 15 15 14 13 10 8 7 8 17 14 13 12 12 12 11 11 11 11 12 12 11 12 12 12 12 11 11 11 9 9 9 9 9 9 9 9 8 8 8 9 9 9 8 7 6 5 4 3 1 0 2 2 3 5 6 7 8
0 1 2 4 7 5 2 4 10 12 14 15 11 11 7 8 3 7 3 2 0 13 11 9 7 13 11 6 2 5 9 8 8 9 13 13 17 16 16 12 15 14 15 13 10 7 7 8 9 15 13 12 12 12 11 12 12 13 13 12 12 12 12 12 12 12 11 11 10 10 9 10 9 9 8 8 8 8 7 7 8 7 7 7 5 4 2 2 0 1 2 2 3 4 5 6 8
3 0 5 3 2 2 5 9 10 10 9 12 10 5 8 8 4 1 1 3 6 6 5 14 18 15 5 6 4 6 8 8 7 11 11 8 14 15 14 14 15 14 13 12 11 9 8 7 8 8 11 15 13 13 13 13 12 13 13 13 13 13 13 12 12 11 11 10 10 9 10 9 9 9 8 8 8 8 7 6 6 7 6 4 3 2 2 1 1 2 2 3 4 4 5 6 8
3 3 1 6 3 6 6 4 9 10 9 9 9 5 7 8 10 6 2 3 9 8 16 21 13 18 12 6 4 6 7 6 9 8 9 11 12 14 16 13 14 13 12 12 11 10 8 7 7 8 10 9 8 12 14 15 14 13 13 13 12 13 13 13 12 11 10 10 10 9 9 9 9 9 9 8 8 8 7 6 4 5 5 3 3 2 1 2 2 2 4 4 4 5 6 8 8
3 2 0 3 3 4 9 10 6 9 13 9 9 9 9 7 9 1 5 5 1 15 11 14 13 14 8 13 6 9 10 10 9 12 12 13 14 14 16 13 13 12 11 11 11 9 8 7 7 8 8 8 8 6 6 11 16 15 14 14 13 13 12 12 12 11 10 10 10 9 9 9 9 9 9 8 8 8 7 6 5 3 3 3 2 2 2 3 3 4 4 5 6 6 7 8 8
1 1 1 5 8 10 8 10 12 14 8 5 10 15 16 14 15 7 1 3 2 2 9 7 2 5 13 12 15 14 15 12 10 13 13 15 13 10 11 12 11 11 10 11 10 9 8 7 7 7 8 8 7 6 7 7 13 15 14 14 14 13 13 12 12 11 10 9 10 10 10 7 7 6 9 6 8 8 7 4 4 4 2 3 2 3 4 4 5 5 6 7 7 7 7 7 8
2 1 4 6 11 10 10 10 11 15 10 6 8 10 11 11 4 5 5 4 9 5 8 8 8 13 18 10 17 16 14 11 13 13 13 11 9 9 9 8 9 9 7 9 9 9 9 8 9 7 8 9 8 7 6 7 9 13 12 13 13 13 12 12 11 11 10 9 8 9 8 4 4 3 4 3 7 4 7 6 6 5 4 3 4 4 5 6 6 7 8 7 6 6 7 8 9
1 4 9 13 8 11 4 13 9 3 9 13 16 15 15 17 9 6 6 14 2 6 12 10 12 9 15 16 18 17 14 13 12 13 12 10 9 9 8 8 9 9 9 8 8 10 9 9 10 8 8 9 8 7 6 5 6 9 5 5 5 8 9 10 7 4 7 4 8 6 4 4 3 4 4 7 3 4 5 6 6 6 5 5 5 5 6 7 7 8 8 8 8 5 7 5 5
6 3 8 13 12 10 6 6 12 10 11 6 12 17 17 15 10 6 4 7 11 5 9 17 15 16 16 19 19 16 15 13 11 12 14 13 11 12 10 8 9 10 9 8 8 10 9 9 9 9 9 9 9 7 6 6 6 5 5 5 5 6 6 6 4 5 4 5 5 5 5 4 4 4 5 5 5 6 5 8 6 6 6 6 6 6 6 7 8 8 9 8 6 5 3 5 5
8 7 11 13 6 6 12 12 9 11 15 11 6 5 8 13 16 1 6 9 8 8 11 12 15 16 18 17 17 17 15 13 13 12 13 13 10 12 11 10 10 9 10 9 9 8 9 9 11 10 10 10 9 7 6 7 6 6 5 5 5 5 4 4 4 4 5 5 6 6 5 4 6 5 8 12 10 5 5 7 7 7 6 6 6 4 4 6 8 8 8 8 5 3 3 5 5
5 11 12 11 11 12 10 13 12 11 16 16 16 11 16 7 1 2 3 10 14 9 17 19 18 20 20 19 20 15 14 13 15 12 11 11 9 9 9 10 9 8 8 8 8 9 11 9 10 10 11 10 8 7 7 7 6 6 6 5 6 5 5 5 5 5 5 6 6 6 6 5 6 6 4 4 5 5 4 4 2 2 1 2 4 2 2 3 4 5 3 4 4 4 3 4 6
5 13 14 9 12 16 14 14 16 12 18 20 15 13 12 8 12 15 12 12 9 8 11 20 22 21 20 19 19 14 14 14 15 14 12 11 10 10 9 8 7 8 7 8 8 8 10 8 11 9 11 10 9 7 8 8 8 7 6 6 6 5 6 6 6 6 5 4 5 5 5 6 6 6 5 5 5 5 4 4 4 4 3 3 3 4 3 2 3 2 2 3 2 1 3 3 2
11 10 12 12 12 15 17 14 10 11 15 18 15 11 9 17 9 6 10 13 9 11 6 17 16 17 13 12 10 15 16 15 14 16 14 12 9 8 10 9 9 8 8 8 8 7 7 8 10 11 10 10 9 8 7 8 7 7 7 7 7 7 6 6 6 6 5 5 5 5 5 5 5 5 5 4 4 4 4 3 3 4 2 1 1 2 1 2 2 1 1 2 3 2 2 2 2
11 12 12 14 12 19 18 18 14 11 11 13 10 6 11 9 15 10 7 5 11 6 18 21 21 21 24 18 13 12 13 14 14 13 13 14 12 10 11 11 9 8 8 8 8 7 6 10 11 12 10 10 8 8 8 7 7 7 7 9 8 8 7 6 6 6 5 6 4 4 5 5 5 5 3 3 2 3 3 3 3 4 2 2 1 1 0 1 2 1 2 3 3 2 3 4 1
17 15 13 14 16 16 18 17 18 20 17 13 12 13 12 15 12 4 8 8 6 9 19 18 17 19 19 22 22 20 17 13 13 9 10 11 11 9 10 10 10 10 10 9 8 7 8 10 12 12 11 10 8 7 8 7 8 7 7 7 7 8 7 7 6 6 6 5 4 5 6 6 4 4 4 2 1 2 2 2 2 3 3 1 1 1 1 3 2 3 3 4 3 3 4 2 2
15 18 17 10 14 19 15 15 21 23 15 15 17 15 11 10 10 15 9 5 5 7 16 24 19 16 14 18 19 18 17 16 14 10 16 11 10 11 11 12 11 11 10 10 8 6 8 10 12 12 11 10 9 6 6 7 8 7 8 7 7 7 8 6 5 6 5 5 5 5 5 6 5 5 4 3 4 3 3 2 2 2 3 1 2 1 1 1 0 2 3 3 4 5 5 5 1
11 18 15 19 16 10 15 19 18 20 19 21 19 15 11 14 8 8 9 9 6 1 7 17 23 22 17 16 16 17 17 16 15 10 12 10 11 12 12 12 11 12 10 11 9 7 8 10 10 11 10 9 8 7 6 7 7 7 8 6 5 6 7 6 6 6 6 5 6 6 6 4 5 5 5 5 2 2 4 3 3 2 3 2 2 1 0 1 2 2 1 1 2 5 10 8 2
14 11 15 18 15 20 16 14 18 15 16 23 22 21 14 14 12 11 7 10 9 7 8 12 14 16 15 15 14 15 15 16 14 12 17 13 12 12 14 12 11 11 11 11 10 7 8 9 11 11 10 10 9 7 7 6 7 7 6 6 6 5 7 6 6 6 5 5 6 6 5 5 5 4 5 4 4 3 3 2 2 2 2 1 1 1 1 0 2 1 1 0 2 2 5 11 1
12 12 15 14 18 16 19 22 15 14 13 17 19 21 21 15 18 14 12 6 10 14 10 14 8 14 16 15 13 12 14 15 13 11 14 12 12 11 14 11 11 13 7 11 11 8 10 6 9 11 10 9 11 8 8 7 7 6 6 5 6 5 7 6 6 6 5 6 7 7 6 5 5 6 5 5 5 4 4 4 3 2 2 1 2 0 1 1 2 1 1 2 4 2 1 6 6
12 14 9 13 12 16 19 16 20 17 10 11 16 15 16 20 21 19 8 12 9 10 15 6 16 14 14 12 10 10 10 15 14 12 11 11 12 12 13 10 9 12 9 7 11 9 9 4 5 8 9 11 10 7 8 7 7 6 6 6 5 6 6 6 5 5 7 7 7 6 6 5 5 4 5 5 6 5 5 5 5 4 3 3 4 2 2 3 1 1 4 4 3 4 6 1 6
11 10 9 7 10 14 13 17 18 19 14 15 11 15 14 17 20 19 13 8 15 13 10 6 15 15 14 15 13 13 12 14 16 12 14 13 12 11 12 11 9 11 8 8 12 10 10 6 6 8 8 10 10 6 8 8 7 6 6 6 6 6 6 6 4 6 6 7 7 6 6 5 5 5 4 5 5 5 4 3 3 2 1 2 1 1 2 3 1 1 1 1 3 1 5 4 7
4 9 13 9 11 10 19 16 20 23 12 20 17 12 10 13 18 15 12 6 14 19 16 8 14 17 16 15 17 16 16 13 13 12 15 14 14 12 14 13 10 12 11 11 12 11 10 6 8 9 9 10 9 7 8 8 7 6 5 6 6 6 6 5 6 6 7 7 7 6 5 6 5 5 4 3 4 4 4 4 3 3 2 1 0 1 0 1 2 1 1 2 2 1 4 5 6
5 9 9 15 12 12 10 22 17 24 22 14 21 12 11 8 8 12 16 8 8 14 11 11 18 16 17 16 14 13 13 12 13 13 14 13 13 13 13 13 12 12 11 13 11 10 11 6 9 10 10 10 7 8 8 7 7 6 5 7 7 6 6 6 6 6 7 7 6 6 5 5 5 5 5 4 4 4 4 4 4 3 2 3 4 4 3 2 3 2 2 3 3 2 3 5 6
8 8 11 14 19 16 14 9 23 18 20 16 16 17 17 7 5 8 15 16 8 10 12 12 15 16 15 15 15 15 16 16 16 15 14 14 13 14 12 12 12 11 11 13 12 11 10 7 8 9 9 8 7 7 7 7 7 5 6 6 6 6 5 6 5 7 7 7 6 6 6 6 5 5 4 3 4 4 4 4 3 4 4 3 2 1 1 3 3 5 2 2 3 2 3 6 6
11 11 12 15 17 21 17 14 12 23 18 21 15 19 22 22 13 7 11 11 11 13 11 12 16 16 15 14 14 16 15 16 16 16 17 16 15 13 12 12 12 11 10 13 13 12 9 8 8 8 10 8 7 8 7 7 6 4 6 6 7 4 4 5 7 7 7 6 6 6 6 6 5 5 5 4 4 4 4 3 3 3 3 2 4 5 5 3 5 3 3 1 1 0 3 4 6
15 15 12 10 13 15 17 15 9 11 17 15 20 13 19 23 20 16 8 8 13 11 8 8 9 14 15 13 11 12 13 15 13 13 14 13 13 13 12 10 10 10 11 13 13 13 9 8 8 8 9 8 6 7 7 7 6 6 7 6 6 4 5 6 7 7 6 7 6 6 6 6 5 6 5 4 4 4 4 3 2 3 3 5 5 5 5 4 3 4 3 2 1 1 6 7 7
13 13 14 13 11 12 12 12 9 15 12 16 14 17 18 14 20 16 16 5 7 10 12 10 11 9 7 7 12 14 15 15 14 16 16 16 15 14 11 11 11 10 11 13 13 12 9 10 10 10 8 8 8 8 7 9 7 6 6 7 7 5 6 6 7 7 7 6 6 6 6 6 6 5 4 5 4 3 3 1 1 4 3 4 4 4 4 1 1 2 1 2 1 2 3 5 4
16 13 13 13 14 12 10 13 17 12 14 12 17 18 18 19 15 18 18 17 11 8 7 9 13 16 13 13 14 17 15 11 14 12 13 13 13 13 11 11 12 14 11 13 14 13 9 10 10 9 7 8 8 8 7 7 5 6 7 7 6 6 6 7 6 6 7 7 6 6 6 7 7 6 4 3 3 2 1 1 3 4 4 3 3 2 4 3 1 2 2 1 0 3 3 4 6
17 13 11 10 9 11 13 14 12 23 16 11 16 18 22 18 19 14 13 14 14 11 10 8 8 9 12 12 14 15 14 14 16 18 16 16 17 15 13 12 12 14 12 14 13 13 11 11 9 8 8 8 7 8 8 7 5 6 6 6 7 5 4 6 6 6 7 7 5 5 5 6 7 7 7 6 5 4 4 4 3 4 4 3 3 2 1 2 1 1 3 4 2 2 3 2 2
14 13 12 10 7 9 9 14 14 15 13 13 14 15 10 11 8 10 7 12 16 12 12 8 10 13 11 12 15 16 18 18 18 17 16 16 17 16 14 14 13 12 12 12 13 14 11 10 9 9 9 8 8 8 7 5 6 5 6 7 6 6 6 7 7 7 7 6 5 4 3 5 6 5 6 6 6 5 5 4 3 2 3 3 4 2 1 3 2 2 2 3 4 4 2 1 1
13 16 13 10 13 14 10 5 15 18 19 15 16 13 8 6 12 10 9 15 16 15 8 10 8 11 14 11 14 18 20 19 18 17 16 16 16 17 17 16 14 14 14 14 14 14 9 12 11 10 8 8 8 8 8 6 7 7 6 6 7 9 8 8 8 6 6 5 5 4 5 5 6 5 4 4 4 5 5 4 5 4 4 3 2 2 3 3 1 2 3 3 3 4 3 2 2
9 15 18 15 14 15 15 14 8 10 11 13 13 11 15 8 11 17 14 10 14 12 12 14 13 11 14 16 18 17 18 19 21 21 20 20 19 16 14 16 16 15 15 14 14 12 11 11 11 9 8 8 9 9 9 8 8 9 8 10 10 9 9 9 9 9 7 7 6 3 4 4 4 4 4 4 5 4 4 3 3 3 3 1 2 3 3 5 4 3 1 3 3 3 6 4 2
9 9 15 20 21 18 18 15 12 8 15 13 14 15 8 8 15 12 16 18 19 13 15 17 18 14 15 16 17 17 19 18 19 20 19 17 16 17 17 18 19 17 15 13 12 12 12 12 10 11 10 8 9 9 10 8 7 7 9 9 9 10 10 6 6 6 8 6 6 5 4 3 3 5 5 6 5 4 3 2 3 3 3 4 3 4 5 5 4 4 3 6 3 2 5 4 5
11 6 12 18 21 22 21 17 15 8 3 8 18 12 11 6 9 16 13 15 19 19 17 19 17 18 16 14 18 18 19 20 18 19 20 21 21 22 21 20 18 17 15 13 13 12 13 13 13 11 9 9 8 9 9 10 9 7 8 8 8 9 9 9 9 8 6 6 7 6 4 4 3 4 6 6 6 5 4 2 2 4 4 3 5 5 4 3 5 5 5 4 4 4 4 7 5
7 10 13 14 19 21 21 17 13 7 7 10 8 21 14 12 8 8 20 17 14 23 25 22 17 18 18 13 13 17 18 19 20 18 19 20 21 20 20 18 16 15 14 15 14 13 12 12 12 11 11 10 9 10 9 10 9 8 8 8 8 7 8 9 8 7 7 7 7 5 5 5 3 4 5 6 6 6 4 4 3 4 4 5 5 5 4 5 5 5 5 6 6 5 5 4 6
11 11 13 14 12 18 21 16 13 10 9 9 13 13 13 14 10 12 8 20 22 18 26 27 18 17 16 17 16 20 18 19 20 23 22 21 19 19 18 16 15 16 16 13 13 11 12 12 12 13 13 10 9 10 9 9 8 8 9 8 10 9 8 8 8 8 7 7 8 6 6 4 4 5 6 5 5 6 5 5 6 6 5 6 5 5 5 4 4 5 5 5 5 6 4 6 7
8 12 14 14 12 9 12 13 11 8 11 11 12 11 12 9 13 15 15 12 18 14 12 16 14 15 19 19 19 16 16 18 16 17 19 20 17 16 15 17 17 14 12 13 13 13 12 12 12 14 13 11 10 10 9 10 9 9 9 10 11 11 10 11 10 9 8 8 8 7 6 5 5 5 5 6 5 5 5 5 6 5 5 5 6 5 4 5 4 5 5 5 5 6 5 6 6
13 10 11 8 9 8 6 9 12 11 9 11 13 15 15 14 6 14 19 20 14 16 14 17 14 18 16 16 17 17 18 18 18 17 16 14 13 12 13 15 16 16 14 14 13 12 13 12 13 14 13 13 11 10 9 10 9 10 8 9 11 11 12 11 12 12 11 11 9 8 6 6 5 6 6 6 6 6 5 5 6 6 6 6 6 5 4 4 4 4 5 5 5 5 5 6 6
13 10 9 10 4 4 7 6 13 12 11 9 12 12 12 15 6 7 17 25 24 14 12 16 18 15 18 17 18 16 17 17 19 18 16 16 17 17 17 16 15 15 16 17 15 14 13 13 15 15 14 14 13 12 10 10 10 10 10 9 9 10 11 12 11 11 10 9 9 7 7 7 6 6 7 7 6 6 6 6 6 6 6 4 5 5 4 4 5 6 6 6 6 6 6 6 7
10 12 8 8 8 7 7 8 6 8 11 15 13 10 13 4 6 9 11 16 17 15 12 12 14 16 19 19 19 17 19 19 20 19 18 18 18 17 18 19 18 16 16 17 15 14 13 13 14 16 15 14 13 13 11 11 11 10 10 8 10 10 10 11 10 10 9 8 8 7 7 8 7 7 7 7 7 6 6 6 6 6 5 5 5 5 5 5 5 6 5 6 6 5 6 7 7
10 7 11 8 7 6 7 6 8 8 8 13 16 11 3 8 3 7 10 11 10 9 12 10 11 13 11 15 20 20 23 19 20 19 18 18 19 19 18 18 17 16 18 18 15 14 14 14 15 17 15 15 14 14 12 12 10 11 9 8 10 9 10 9 9 9 9 9 8 7 7 7 7 6 7 6 7 7 8 7 6 6 5 5 5 5 5 6 5 6 6 6 6 6 6 7 6
8 8 9 12 11 4 5 3 4 9 11 12 14 7 3 8 4 6 4 2 6 6 9 10 12 9 13 14 19 19 20 20 19 19 18 19 20 19 17 16 16 15 17 16 17 15 15 16 16 16 16 15 15 14 13 12 11 10 10 10 11 11 9 9 8 8 8 9 9 8 8 7 7 8 7 7 5 7 8 8 7 6 5 5 5 6 6 6 6 7 6 6 6 4 7 7 6
3 7 11 11 6 10 3 5 1 1 0 7 4 8 11 8 9 6 8 5 9 10 10 12 16 14 10 13 19 18 20 18 18 19 19 21 18 17 17 17 16 15 16 17 18 17 17 16 15 16 15 14 14 15 14 12 11 10 11 10 11 11 11 11 10 10 10 9 9 7 8 7 8 8 8 6 8 8 8 8 8 7 5 5 6 6 6 6 5 5 6 6 6 5 6 6 5
3 4 5 4 11 9 5 4 1 3 2 2 10 7 4 11 9 4 11 11 8 9 12 14 15 12 9 11 14 18 20 18 22 22 23 23 21 21 18 17 19 19 19 18 17 14 14 15 16 16 15 16 15 15 14 13 12 11 11 12 12 11 11 11 10 11 9 10 8 7 7 8 7 7 7 7 9 9 8 9 8 6 5 6 6 6 6 6 6 6 6 6 5 5 5 5 5
9 11 4 7 6 14 1 1 4 4 4 2 4 10 6 9 6 6 9 12 12 8 7 14 15 11 16 16 17 21 21 18 20 20 19 19 19 20 19 19 18 17 16 16 15 13 12 12 13 15 16 16 14 13 12 11 11 9 9 11 12 11 10 10 9 10 9 10 9 8 8 8 7 8 8 8 8 8 8 8 7 6 6 6 6 6 6 6 6 7 6 6 6 6 7 6 5
10 9 13 10 6 2 5 4 2 0 2 4 4 5 7 3 4 5 7 8 12 8 7 15 13 14 14 17 16 21 21 20 20 20 20 20 21 20 20 19 18 17 16 15 14 13 14 14 14 14 13 12 12 13 13 13 12 10 10 10 10 11 11 11 10 10 10 10 9 8 9 9 9 8 8 9 8 8 8 8 7 7 6 6 6 5 6 6 6 6 6 7 6 6 6 5 4
8 8 8 5 2 4 3 2 4 2 2 2 3 5 4 6 2 4 10 8 7 8 14 19 9 11 16 15 17 20 21 20 20 20 20 20 19 17 17 16 16 14 13 12 13 15 15 14 14 14 15 16 16 14 13 11 11 11 12 12 12 11 12 11 11 11 10 9 8 9 9 8 8 9 9 9 9 9 9 8 8 7 7 6 6 6 6 6 5 5 6 6 6 6 6 5 4
4 5 9 5 4 6 8 3 5 8 6 3 2 5 4 5 7 8 7 7 11 11 9 7 10 15 16 14 18 20 19 21 22 21 20 18 16 16 15 14 12 13 13 14 13 13 14 15 14 15 14 14 14 14 13 12 11 11 13 12 12 11 12 11 12 11 10 9 9 9 9 8 9 9 10 10 10 9 8 8 7 7 7 6 6 7 6 5 6 6 6 5 6 6 5 5 5
Wind_Direction
344 245 111 177 148 216 78 218 61 237 21 244 221 226 244 171 119 97 127 157 82 47 39 357 316 306 151 136 103 82 45 72 302 127 181 96 111 104 112 119 121 122 126 132 133 134 130 131 129 129 133 130 128 127 128 128 127 126 124 122 120 119 121 120 117 116 114 112 106 101 97 97 98 95 93 93 91 90 101 107 103 101 102 99 96 101 95 92 92 87 82 78 73 71 66 60 53
349 316 205 182 165 128 246 176 157 301 243 303 256 212 242 102 90 132 173 129 129 128 98 23 305 134 109 115 107 76 43 48 62 88 82 110 100 105 115 118 125 126 129 130 133 131 131 131 129 132 133 135 130 129 130 130 129 129 128 126 123 124 124 122 122 119 116 113 108 106 104 96 100 99 94 91 90 90 92 114 113 109 107 112 110 104 104 98 92 84 80 75 67 57 50 45 39
339 334 319 139 138 196 288 180 304 261 298 285 281 224 191 109 123 178 166 151 145 139 115 150 241 278 42 60 44 58 114 81 81 89 108 121 106 116 117 116 118 123 127 128 131 131 131 133 133 134 136 134 134 133 130 131 131 131 129 126 125 126 126 125 123 120 115 112 110 109 109 104 100 101 100 97 98 91 72 97 115 120 121 117 114 110 108 101 95 94 83 73 62 51 40 34 30
309 179 143 52 101 174 225 236 231 253 269 245 282 306 246 117 157 175 172 151 142 135 144 174 168 241 122 87 99 86 102 104 125 124 135 139 123 128 122 121 122 126 126 131 132 134 133 136 135 135 135 136 137 132 133 132 133 133 131 129 129 130 128 125 121 118 116 113 111 113 113 107 99 99 102 105 104 97 86 87 112 114 116 113 114 112 105 102 100 91 81 71 60 50 40 32 25
326 256 148 130 87 18 33 237 213 184 256 261 259 260 238 149 167 176 193 138 157 145 167 139 95 51 72 92 114 112 131 122 119 116 92 106 120 126 128 127 129 130 131 130 132 134 139 137 135 135 136 139 136 136 134 135 134 133 131 131 130 129 130 127 124 120 118 115 114 117 117 109 105 102 99 96 98 104 100 66 98 108 106 90 86 91 94 94 89 81 75 65 54 46 38 31 26
304 320 183 134 147 188 41 332 310 284 255 311 306 265 335 295 65 160 206 118 153 139 176 103 110 131 64 59 13 105 143 113 146 106 112 121 125 132 131 131 129 126 126 123 127 135 140 138 137 137 137 139 138 137 136 134 134 134 131 130 131 130 131 129 126 122 119 120 119 120 117 112 110 106 105 101 96 94 111 108 93 103 106 102 104 105 100 92 85 77 66 54 41 31 25 17 16
341 352 352 132 314 91 179 222 269 259 290 269 273 321 326 343 108 148 81 98 119 98 99 114 114 112 90 139 43 1 95 117 119 120 113 129 132 132 132 129 124 116 115 121 131 136 140 140 139 138 140 142 140 138 138 136 135 135 133 131 131 131 130 129 127 125 123 125 125 124 120 116 110 106 105 107 105 105 102 108 111 114 117 109 110 109 111 108 101 82 59 41 24 13 9 4 3
195 62 296 26 303 0 332 283 279 305 276 284 328 299 11 7 356 40 355 48 37 63 98 105 95 86 48 61 106 330 82 85 111 110 116 127 130 134 125 116 111 116 120 126 132 136 142 138 139 138 138 140 141 139 138 138 137 137 134 132 132 131 129 130 127 125 125 126 128 127 123 118 115 112 108 106 111 116 122 115 116 111 115 109 117 117 113 111 93 78 52 32 14 0 0 358 352
42 117 269 346 299 338 310 282 279 287 289 281 302 299 309 353 346 14 6 18 194 103 116 122 105 83 154 80 73 106 70 93 101 108 116 122 130 114 111 119 120 123 126 129 134 139 141 142 137 137 140 144 144 140 140 140 140 139 137 135 132 131 131 128 129 128 129 129 132 131 127 125 120 114 113 112 116 125 125 128 128 128 122 126 118 117 112 99 85 73 56 15 7 357 358 351 345
338 155 244 191 191 276 279 282 292 287 288 305 272 243 295 18 333 105 308 22 57 88 69 74 74 107 111 91 101 71 105 107 110 113 125 132 119 109 110 116 120 122 122 126 131 138 145 143 137 140 144 146 144 142 142 142 141 140 137 134 132 132 130 129 130 134 133 134 135 136 133 127 123 123 119 119 123 128 132 129 131 133 133 129 126 122 124 110 98 76 24 1 354 357 348 338 334
324 299 198 315 316 298 262 288 277 287 292 289 295 294 269 313 261 217 237 160 122 107 114 103 81 102 97 70 70 116 113 118 125 136 135 112 99 106 112 114 117 122 127 130 133 139 146 144 144 143 146 142 142 142 139 139 140 136 131 131 131 131 131 130 131 127 128 127 122 126 129 129 128 126 128 126 129 135 141 130 132 129 128 119 129 121 114 110 117 212 347 341 350 341 334 329 326
320 283 322 179 231 234 257 271 271 271 273 278 276 264 261 257 271 286 266 359 48 124 134 111 141 114 86 115 141 134 128 134 135 126 115 116 113 117 119 117 118 121 127 131 131 138 142 150 145 147 140 140 140 139 140 142 141 139 137 134 132 129 130 132 131 130 135 140 133 127 126 129 131 129 133 131 131 136 141 136 130 132 136 140 128 126 107 135 242 295 307 321 318 324 321 317 313
166 156 256 240 184 167 227 256 259 267 264 266 274 287 312 282 263 240 18 310 285 88 120 116 133 110 119 125 177 134 135 136 127 122 126 123 118 120 119 121 121 125 129 129 134 140 146 145 149 141 141 141 141 144 142 142 141 141 139 138 138 137 135 138 140 141 143 136 135 138 135 134 135 135 135 141 137 134 136 137 142 142 149 135 139 123 145 222 240 274 279 297 296 302 301 296 293
179 166 156 262 216 254 260 240 262 263 260 277 277 297 283 292 275 276 90 246 268 106 136 135 129 107 110 117 141 126 143 147 131 117 109 105 104 110 115 118 120 125 132 134 137 142 149 149 142 143 142 137 145 144 145 145 145 141 140 139 139 142 142 141 138 140 138 138 137 139 139 140 142 145 143 145 144 137 140 138 145 136 145 150 155 177 213 235 250 258 277 274 285 282 282 283 288
205 128 251 267 249 217 233 257 237 249 262 260 276 297 291 278 328 357 255 285 17 131 116 102 131 103 186 148 168 152 156 151 133 119 113 104 105 111 119 122 126 133 136 135 135 149 151 150 145 141 139 139 139 141 146 151 149 147 145 145 144 141 140 138 138 137 139 138 141 142 144 145 150 148 147 146 143 143 137 140 135 127 133 174 179 221 243 242 253 254 263 264 263 270 276 286 301
248 95 165 254 238 226 225 232 245 263 255 240 261 267 276 279 272 290 275 250 111 26 134 131 196 120 162 156 154 153 148 146 130 119 116 112 115 115 120 125 129 134 137 140 146 148 152 154 147 149 145 144 145 147 149 151 153 153 150 149 143 141 141 139 140 140 142 143 143 146 147 149 146 147 148 148 148 149 142 127 149 141 178 195 223 240 249 252 252 261 257 262 265 276 290 304 301
337 117 241 233 251 220 209 236 204 233 250 267 277 264 264 285 321 296 305 252 241 133 116 120 127 134 155 145 142 141 143 133 125 121 116 122 117 113 122 125 129 132 141 151 149 151 157 156 155 153 153 150 149 148 151 151 158 156 155 147 144 143 142 144 147 149 147 147 147 150 149 137 139 141 138 138 157 150 147 165 172 173 189 216 230 242 250 256 258 263 267 273 285 294 298 299 294
233 214 210 233 235 236 218 220 234 219 222 227 236 253 266 273 284 297 327 302 267 125 101 87 78 85 124 128 133 139 141 132 129 126 132 133 126 129 134 137 140 146 149 156 159 156 159 161 160 161 155 155 154 151 151 151 155 152 139 140 140 144 147 153 153 151 153 151 153 150 143 154 150 152 155 162 160 160 168 175 186 189 192 222 234 245 253 257 266 271 277 283 290 300 300 300 292
202 225 214 225 214 244 244 242 243 259 262 234 224 230 242 247 265 252 283 291 303 86 66 88 85 95 107 126 137 142 139 134 124 133 141 145 141 140 141 145 146 147 155 157 159 163 163 161 164 167 159 157 156 153 149 148 145 138 139 135 142 145 158 161 164 163 157 171 158 160 167 164 161 174 174 166 164 171 170 185 191 199 208 213 229 240 257 269 277 281 285 290 296 295 284 277 274
206 224 227 226 208 230 234 250 252 254 261 262 278 280 224 237 236 168 262 280 286 273 127 105 116 125 133 140 141 145 143 135 135 142 146 156 146 143 150 151 152 160 157 159 164 168 171 169 169 166 160 159 157 155 146 148 152 145 145 146 140 154 167 172 186 182 178 179 178 169 178 184 168 182 181 165 167 164 177 186 194 208 216 230 237 248 275 284 282 282 278 278 276 269 264 260 273
177 222 232 223 212 244 248 245 252 257 266 266 268 278 289 283 228 181 243 273 281 274 155 146 149 151 148 150 146 146 144 138 142 144 153 155 148 149 152 154 158 156 157 154 163 172 177 169 166 162 156 159 159 155 150 156 158 149 158 152 155 168 173 189 202 203 192 179 187 181 173 191 171 184 163 134 132 144 146 155 185 172 210 246 243 236 239 259 254 251 254 263 254 251 253 256 260
206 226 233 229 203 233 245 236 227 229 252 261 262 268 265 258 249 240 220 235 237 260 159 156 151 146 148 151 148 148 148 142 149 152 157 160 163 148 151 151 145 145 149 156 172 176 181 161 164 156 155 161 162 158 155 162 162 156 164 160 163 176 182 197 202 201 200 187 188 182 167 145 149 123 116 131 142 138 148 164 174 187 203 219 222 214 220 251 276 224 271 309 288 258 245 262 297
226 228 234 222 213 222 234 253 242 231 230 245 250 238 248 272 275 232 225 212 221 225 144 136 133 136 126 122 131 147 151 151 157 157 159 162 165 152 152 152 150 151 158 173 177 184 178 160 160 152 158 161 167 159 153 165 167 164 163 165 167 182 189 198 205 201 189 183 160 151 124 107 107 96 91 87 94 115 127 127 146 159 159 147 68 107 168 240 267 338 10 296 293 297 289 279 244
224 226 220 226 211 218 231 244 261 259 264 258 254 267 255 239 258 258 246 195 243 106 114 137 138 141 141 141 147 150 159 161 165 163 160 163 168 164 157 154 158 155 161 177 185 182 176 159 156 155 160 162 170 162 160 169 164 166 168 174 173 181 185 203 200 189 173 146 141 125 101 100 104 100 96 88 107 121 142 130 121 104 114 79 88 123 143 65 28 16 317 291 276 282 308 280 46
222 234 217 216 221 224 223 230 249 258 260 272 275 259 237 249 251 254 239 213 220 147 120 131 140 147 153 153 158 163 166 163 166 154 155 164 172 158 153 155 157 162 168 182 185 169 174 154 155 158 162 163 168 168 163 163 166 170 175 180 174 180 185 200 182 154 142 134 123 111 116 119 110 107 113 137 106 112 120 106 103 106 96 67 59 15 26 71 10 343 316 285 302 304 262 258 159
221 226 226 228 214 218 224 222 227 243 260 258 259 260 272 254 267 258 238 240 221 148 152 143 149 154 154 159 160 158 164 163 167 156 165 169 166 155 159 164 164 170 173 180 177 172 165 151 158 161 164 166 167 168 164 157 169 168 179 182 180 168 183 179 148 135 146 140 122 111 110 125 134 136 130 150 159 148 112 109 111 93 97 100 83 32 19 64 88 18 346 324 316 311 309 283 293
214 229 228 225 234 233 214 224 222 219 229 248 252 254 252 266 242 248 247 231 247 232 136 159 157 162 167 164 164 158 156 164 169 157 159 165 165 164 164 167 170 175 169 174 178 171 164 153 162 161 166 164 164 164 165 165 166 163 177 158 169 162 161 150 131 143 146 149 138 134 125 127 134 137 139 136 120 125 122 139 144 144 147 163 144 157 188 218 112 123 225 53 10 14 308 303 194
256 245 233 238 228 227 242 235 221 211 219 224 241 254 250 254 251 244 227 225 241 240 140 181 168 154 156 161 161 161 158 165 167 157 167 168 170 168 169 171 170 173 168 172 173 169 167 163 161 165 163 162 165 166 166 162 160 157 167 143 167 163 139 142 141 150 147 138 126 119 126 133 138 140 149 140 139 148 136 145 130 111 144 152 106 183 178 75 105 113 100 139 58 75 290 262 175
264 258 254 236 232 232 220 234 238 214 224 210 215 238 248 238 249 243 225 192 218 238 227 179 183 152 149 157 153 163 165 163 163 167 172 173 166 160 167 172 155 165 164 162 168 163 177 173 166 167 163 157 164 166 166 161 154 154 161 156 170 141 127 137 141 154 137 128 124 128 134 143 149 153 152 150 148 152 160 152 148 163 168 138 122 169 134 24 47 63 97 65 56 78 341 265 58
260 255 254 250 243 233 224 228 229 234 228 212 185 226 224 233 236 245 232 192 200 222 231 154 143 156 147 150 158 162 170 163 170 167 162 163 163 157 159 170 148 157 162 151 163 167 179 167 164 165 160 158 165 156 156 152 153 160 160 156 160 130 131 134 145 144 130 126 120 129 138 150 151 156 148 144 146 155 158 153 151 167 187 157 144 156 114 65 17 352 45 33 60 42 275 19 69
246 248 246 231 227 234 224 217 220 229 221 233 198 221 219 221 225 231 236 197 192 206 218 136 150 147 154 158 161 166 182 173 170 158 160 160 161 155 154 164 146 152 157 151 165 171 179 164 165 163 164 161 162 149 153 151 152 162 152 150 147 137 136 146 157 141 130 124 124 134 139 138 144 147 145 144 151 147 133 130 107 127 100 52 24 28 100 124 109 63 342 143 59 75 251 77 97
274 218 226 230 230 225 230 233 210 220 222 216 228 242 233 219 213 220 235 198 205 207 218 166 161 150 167 166 168 170 176 175 166 155 162 162 160 159 158 164 154 152 157 156 163 169 181 167 170 161 164 160 160 150 153 147 151 165 147 149 142 141 151 152 157 147 129 124 127 138 142 137 141 151 147 151 141 129 137 133 138 140 155 121 206 276 174 174 168 176 192 68 78 334 89 100 97
235 234 209 222 223 233 231 221 232 214 220 217 220 240 244 233 231 215 229 200 204 210 199 161 160 171 169 170 169 173 161 162 161 162 166 161 164 161 162 161 160 154 150 159 163 170 177 163 170 161 166 159 149 147 146 141 145 157 141 151 143 146 149 152 150 135 118 125 130 131 137 134 142 147 150 153 136 139 139 143 160 153 185 163 192 189 204 190 148 93 97 143 100 70 46 100 91
230 214 220 207 217 217 229 210 222 228 215 222 213 231 242 242 218 217 217 219 182 210 202 171 158 168 174 170 166 170 164 161 167 169 164 164 166 164 164 161 159 155 149 157 163 170 172 160 163 161 161 160 150 148 146 145 148 155 137 152 144 143 153 150 139 114 122 125 132 136 137 135 142 144 136 133 125 142 147 158 167 163 189 198 199 199 194 165 116 99 80 32 79 75 73 119 107
208 207 211 215 218 218 220 215 202 226 220 224 209 219 234 237 237 222 220 209 202 216 212 180 167 164 174 171 170 168 161 164 169 169 162 161 162 163 163 162 158 156 149 154 162 169 164 157 152 157 160 162 151 147 142 146 151 140 136 142 146 144 131 137 121 121 125 127 133 138 137 134 137 138 131 125 123 127 141 167 164 188 192 158 102 66 48 43 58 63 117 39 9 105 99 125 117
226 219 222 221 218 217 222 216 219 219 228 223 216 217 226 224 227 230 249 203 190 212 181 176 179 173 168 170 164 161 159 163 164 159 159 154 158 162 163 161 156 153 151 157 164 168 159 153 157 158 162 158 148 148 143 152 152 145 137 134 135 148 128 120 119 126 125 125 135 136 140 138 139 141 135 128 122 139 160 165 194 176 141 96 83 75 52 47 80 90 104 85 11 29 89 113 120
263 254 243 233 228 235 227 225 212 210 238 224 214 220 236 222 216 217 229 211 191 185 183 170 177 184 172 163 160 163 162 159 164 160 160 160 162 165 162 157 153 151 150 160 163 170 163 159 162 167 159 158 155 158 159 162 160 148 137 151 155 157 143 128 126 129 124 130 139 145 148 143 138 133 128 124 136 149 160 185 158 82 91 108 107 122 132 134 132 130 162 129 143 123 106 120 128
258 265 254 240 231 235 219 215 222 239 211 230 240 237 236 236 220 214 217 230 219 204 214 205 181 181 186 172 165 167 165 156 149 150 159 159 161 163 159 157 157 158 162 161 168 170 166 165 165 165 156 164 165 167 162 162 166 164 153 160 156 151 144 136 131 122 128 135 144 154 152 144 141 140 141 135 141 140 144 107 107 103 83 90 111 123 138 171 145 125 139 92 41 141 140 161 156
252 254 261 266 247 242 238 238 215 221 229 219 224 235 237 233 228 214 208 220 230 213 192 201 188 192 184 178 164 157 152 155 161 163 163 165 165 164 162 163 168 165 162 165 168 165 170 171 165 166 168 166 168 167 164 166 169 159 151 157 153 142 133 131 120 126 128 134 146 152 150 140 145 149 157 161 149 142 130 115 108 116 109 98 59 10 193 120 105 118 169 155 116 64 114 133 186
240 247 251 249 263 259 219 222 233 244 223 213 227 236 241 217 211 225 204 214 219 214 192 204 182 186 187 183 166 160 160 161 163 164 165 166 164 165 163 166 168 165 168 170 171 171 167 170 169 171 172 166 170 171 169 170 162 152 145 148 147 129 134 118 108 108 106 112 125 141 125 131 138 148 155 149 141 125 118 119 118 73 89 109 117 74 200 140 167 99 148 177 126 152 156 125 72
230 239 248 253 248 252 263 200 213 232 242 228 221 240 252 224 223 220 214 211 214 212 201 225 208 193 180 166 170 161 163 163 163 166 165 163 165 169 170 169 166 171 176 176 176 175 169 169 174 174 169 170 170 169 172 160 150 147 126 101 105 102 104 113 115 111 119 119 114 115 133 135 138 142 128 113 101 102 101 102 102 106 109 93 99 98 141 142 138 164 123 108 122 159 155 136 16
239 232 235 250 259 259 259 268 234 206 229 225 213 230 236 221 219 225 223 223 221 208 207 210 220 196 173 164 171 168 165 166 165 169 171 173 171 168 166 166 172 177 178 181 175 171 164 169 169 167 174 168 171 174 175 169 166 158 140 142 143 139 138 142 146 147 143 140 143 144 126 128 140 142 122 109 102 93 82 80 94 109 102 95 97 124 87 50 41 57 38 135 96 149 146 122 112
236 227 223 239 252 262 265 260 261 220 215 207 214 224 243 225 219 216 220 216 222 223 219 215 212 195 187 173 172 170 168 172 171 170 169 166 169 169 172 175 178 179 181 173 169 172 168 166 164 173 174 169 172 177 177 175 167 161 154 155 151 149 144 142 137 139 139 144 136 144 150 142 142 123 123 119 121 117 113 122 107 126 101 83 93 84 75 93 78 70 64 67 69 101 125 126 148
239 232 218 221 239 247 255 263 262 268 288 227 214 218 232 261 232 210 209 211 216 218 222 222 210 197 197 179 169 171 173 171 170 172 172 171 174 174 178 181 179 179 172 167 172 173 171 167 170 172 168 173 178 172 176 177 171 158 154 153 152 148 147 147 148 145 140 137 139 148 147 147 149 123 134 131 125 126 127 120 104 138 126 108 81 84 90 91 81 70 67 82 73 65 119 136 158
234 227 244 225 223 239 250 254 258 259 269 253 221 211 230 227 224 222 210 220 207 210 214 220 208 197 186 181 162 173 172 175 169 172 177 179 179 180 178 176 176 166 169 175 175 174 166 167 170 166 171 173 180 176 173 175 168 158 154 151 147 145 139 140 142 143 140 137 131 144 140 159 159 140 123 128 130 133 133 138 111 111 114 98 99 91 84 83 92 88 78 69 75 64 76 106 104
237 247 241 248 233 223 235 245 252 261 251 249 233 202 225 228 215 228 218 214 221 207 207 213 205 194 188 187 178 175 175 178 177 175 177 182 180 180 176 169 164 173 176 169 169 167 165 167 170 170 173 174 176 180 174 172 161 157 157 160 151 149 141 139 142 146 143 141 141 147 154 143 140 134 120 125 116 116 120 98 83 88 102 105 100 104 95 86 82 91 101 105 97 89 85 93 101
234 228 243 246 249 233 221 237 248 260 247 242 246 243 219 236 211 212 217 216 213 206 208 208 201 197 193 193 186 168 178 178 180 178 177 180 180 171 162 166 172 169 168 169 170 170 167 167 169 174 175 171 174 179 173 172 163 167 167 164 158 153 149 146 146 148 144 144 150 160 159 163 138 113 103 112 101 94 98 109 107 102 104 109 108 104 109 112 105 104 105 97 92 97 97 94 90
224 215 222 243 260 259 223 219 231 232 245 241 242 242 243 237 219 206 210 223 223 205 191 196 195 189 189 189 188 175 176 178 175 175 175 167 159 162 165 167 170 172 167 172 176 171 172 170 169 175 174 175 175 175 172 171 169 173 175 166 161 158 153 154 156 157 158 155 158 163 163 152 136 122 112 109 103 98 95 95 97 95 101 109 116 124 125 119 109 94 84 86 87 86 86 86 89
230 222 209 214 220 216 239 201 221 220 222 237 241 246 245 242 238 207 207 211 212 201 184 184 185 183 186 182 183 175 179 175 172 174 168 166 165 165 170 172 172 172 176 177 175 175 175 175 173 175 178 176 176 176 175 174 173 179 177 169 162 158 156 156 156 156 160 155 158 155 159 150 148 129 125 119 124 118 106 92 95 98 95 102 113 114 115 102 97 95 96 91 89 85 88 92 88
228 219 207 202 208 213 230 211 217 230 231 230 236 251 259 288 260 213 205 203 195 176 170 165 184 191 185 186 182 169 179 176 176 174 169 166 166 169 172 174 178 178 176 175 176 176 178 180 176 177 178 176 175 175 177 179 181 180 178 167 162 157 156 157 157 157 160 155 156 158 158 150 149 148 137 134 133 127 112 117 108 107 109 109 114 116 111 107 101 99 96 92 90 93 88 87 93
240 226 213 209 217 200 216 203 201 213 231 228 228 249 193 215 212 190 197 201 181 177 168 170 172 189 199 190 183 171 178 179 174 171 166 164 166 169 174 178 179 179 177 177 177 179 178 182 180 179 174 176 172 178 179 181 181 180 178 164 160 156 154 156 156 158 158 153 156 157 156 149 144 146 140 147 129 128 121 118 115 108 106 103 99 99 100 98 98 96 96 99 93 92 92 91 88
247 236 216 227 220 247 243 202 213 199 203 221 216 221 119 211 191 204 240 157 173 190 190 190 210 196 190 181 187 178 177 177 168 165 160 164 168 171 173 175 178 178 178 179 181 179 182 186 183 180 177 173 173 176 181 180 180 178 175 162 161 156 153 150 151 156 157 155 159 159 157 152 146 142 142 150 131 129 124 119 116 116 115 112 104 106 107 105 106 107 107 107 104 101 98 96 100
240 252 219 224 232 242 270 285 274 8 112 238 206 232 250 310 299 226 170 181 200 194 203 198 212 218 176 184 184 174 177 171 159 161 162 166 170 173 174 173 175 175 177 183 186 182 182 182 181 179 177 174 175 179 179 179 179 177 175 162 160 158 156 158 160 161 156 155 157 159 156 154 146 142 146 137 123 130 126 125 122 124 122 114 110 114 115 117 114 110 113 110 112 115 107 107 102
219 273 261 238 235 253 222 209 197 251 156 263 193 209 196 213 253 269 205 201 214 213 198 211 223 221 189 179 174 165 176 164 160 162 165 168 171 174 176 177 176 177 180 184 185 182 181 181 181 178 175 177 178 178 179 181 180 176 172 165 162 159 159 159 158 159 154 152 156 155 149 147 149 140 134 131 130 131 131 127 126 130 125 122 126 123 122 121 115 114 119 116 121 115 105 92 92
240 241 284 241 170 229 159 148 220 236 233 261 252 207 235 198 234 206 202 204 223 220 228 220 218 206 205 185 171 163 168 157 159 161 163 167 172 176 176 176 179 176 174 178 181 175 176 179 179 178 180 182 177 176 178 181 181 175 171 167 160 158 157 156 155 154 153 155 158 156 152 149 130 131 128 130 130 125 126 127 126 130 128 127 126 127 122 119 123 125 125 118 114 110 108 108 109
245 260 259 277 312 234 168 185 145 114 271 228 296 217 228 197 211 199 232 216 219 214 226 249 223 187 189 182 163 159 163 160 160 161 166 171 176 176 172 172 173 172 171 174 173 173 177 178 174 177 176 177 179 181 180 180 178 169 165 160 160 157 156 155 155 155 157 158 158 150 148 140 138 136 131 132 128 129 130 129 130 131 128 131 127 128 127 129 132 134 130 123 125 116 114 117 116
225 237 265 266 265 294 149 188 154 131 244 216 213 237 256 249 231 196 228 224 227 199 213 236 228 186 182 171 157 158 158 160 160 162 169 174 174 171 168 168 169 167 167 168 172 176 177 176 178 175 176 180 186 184 177 176 169 166 161 163 160 158 155 153 154 157 155 158 150 147 147 144 134 141 138 136 133 134 133 133 134 133 137 137 133 135 138 139 137 135 132 131 127 119 119 126 119
196 205 241 232 242 252 210 223 144 238 230 213 303 258 270 269 236 245 256 245 252 244 223 224 199 179 172 156 159 154 157 160 161 168 170 170 166 161 157 158 159 161 166 173 174 172 175 180 181 178 179 185 184 182 179 171 167 163 162 162 161 158 155 155 155 157 156 153 149 148 146 137 137 145 142 140 139 137 136 138 136 140 141 140 140 144 148 142 140 138 137 130 127 125 125 117 105